FDX1107 KORD-KAFW

Flight info

Callsign FDX1107
Flight time 1h 44m
Altitude 34000
Route ACITO ADELL ARLYN STL FSM RRNET TRUUK3
Aircraft B77L/H-SDE1E2E3FGHIJ2J3J4J5M1RWXY/LB1D1

Departure

Time 2026-04-20 18:39
Airport Chicago O'Hare International Airport (KORD)

Arrival

Time 2026-04-20 20:23
Airport Perot Field/Fort Worth Alliance Airport (KAFW)
Time Latitude Longitude Altitude Speed Heading
2026-04-20 18:07 41.96284 -87.92585 673 ft 0 kts 90°
2026-04-20 18:19 41.96284 -87.92593 673 ft 4 kts 86°
2026-04-20 18:19 41.96279 -87.92627 673 ft 4 kts 58°
2026-04-20 18:20 41.96261 -87.92652 672 ft 4 kts 28°
2026-04-20 18:20 41.96236 -87.92664 673 ft 4 kts
2026-04-20 18:20 41.96225 -87.92665 673 ft 1 kts
2026-04-20 18:26 41.96227 -87.92665 673 ft 1 kts 360°
2026-04-20 18:27 41.96261 -87.92666 673 ft 6 kts 359°
2026-04-20 18:27 41.96306 -87.92674 673 ft 7 kts 343°
2026-04-20 18:27 41.96351 -87.92708 672 ft 9 kts 326°
2026-04-20 18:27 41.96423 -87.92688 673 ft 12 kts 29°
2026-04-20 18:28 41.96505 -87.92660 674 ft 12 kts
2026-04-20 18:28 41.96592 -87.92660 672 ft 13 kts
2026-04-20 18:28 41.96684 -87.92659 673 ft 14 kts
2026-04-20 18:28 41.96735 -87.92570 673 ft 14 kts 88°
2026-04-20 18:29 41.96737 -87.92443 673 ft 14 kts 89°
2026-04-20 18:29 41.96738 -87.92315 673 ft 14 kts 89°
2026-04-20 18:29 41.96739 -87.92187 673 ft 14 kts 91°
2026-04-20 18:29 41.96737 -87.92059 673 ft 14 kts 90°
2026-04-20 18:30 41.96737 -87.91931 673 ft 14 kts 90°
2026-04-20 18:30 41.96737 -87.91804 674 ft 14 kts 90°
2026-04-20 18:30 41.96737 -87.91676 673 ft 14 kts 90°
2026-04-20 18:30 41.96737 -87.91550 673 ft 14 kts 90°
2026-04-20 18:31 41.96736 -87.91422 674 ft 14 kts 90°
2026-04-20 18:31 41.96739 -87.91294 674 ft 14 kts 88°
2026-04-20 18:31 41.96739 -87.91167 673 ft 14 kts 91°
2026-04-20 18:31 41.96736 -87.91039 673 ft 14 kts 90°
2026-04-20 18:32 41.96739 -87.90911 673 ft 14 kts 89°
2026-04-20 18:32 41.96740 -87.90785 673 ft 14 kts 89°
2026-04-20 18:32 41.96742 -87.90657 673 ft 14 kts 89°
2026-04-20 18:32 41.96745 -87.90530 673 ft 14 kts 87°
2026-04-20 18:33 41.96739 -87.90382 673 ft 20 kts 92°
2026-04-20 18:33 41.96742 -87.90174 673 ft 22 kts 88°
2026-04-20 18:33 41.96742 -87.89967 674 ft 22 kts 90°
2026-04-20 18:33 41.96742 -87.89759 674 ft 22 kts 90°
2026-04-20 18:34 41.96741 -87.89552 673 ft 22 kts 90°
2026-04-20 18:34 41.96740 -87.89345 674 ft 22 kts 90°
2026-04-20 18:34 41.96740 -87.89138 673 ft 22 kts 88°
2026-04-20 18:34 41.96752 -87.88932 673 ft 22 kts 83°
2026-04-20 18:35 41.96765 -87.88727 673 ft 22 kts 100°
2026-04-20 18:35 41.96800 -87.88560 673 ft 20 kts 35°
2026-04-20 18:35 41.96924 -87.88471 672 ft 20 kts 24°
2026-04-20 18:35 41.97062 -87.88451 673 ft 20 kts 355°
2026-04-20 18:36 41.97194 -87.88417 674 ft 20 kts 55°
2026-04-20 18:36 41.97200 -87.88228 674 ft 20 kts 91°
2026-04-20 18:36 41.97188 -87.88068 671 ft 14 kts 122°
2026-04-20 18:36 41.97105 -87.88034 673 ft 0 kts 180°
2026-04-20 18:37 41.97090 -87.88035 673 ft 7 kts 180°
2026-04-20 18:37 41.97005 -87.88034 674 ft 14 kts 179°
2026-04-20 18:38 41.96878 -87.88110 675 ft 36 kts 220°
2026-04-20 18:38 41.96517 -87.88537 675 ft 104 kts 221°
2026-04-20 18:38 41.95816 -87.89360 674 ft 161 kts 220°
2026-04-20 18:38 41.94916 -87.90384 1073 ft 169 kts 219°
2026-04-20 18:39 41.93949 -87.91265 1650 ft 170 kts 202°
2026-04-20 18:39 41.92841 -87.91766 2342 ft 168 kts 195°
2026-04-20 18:39 41.91672 -87.92238 2955 ft 185 kts 198°
2026-04-20 18:39 41.90356 -87.92825 3294 ft 214 kts 199°
2026-04-20 18:40 41.88859 -87.93509 3749 ft 235 kts 199°
2026-04-20 18:40 41.87284 -87.94262 4513 ft 247 kts 201°
2026-04-20 18:40 41.85652 -87.95092 5339 ft 255 kts 202°
2026-04-20 18:40 41.83976 -87.95955 6245 ft 260 kts 202°
2026-04-20 18:41 41.82268 -87.96834 7137 ft 266 kts 202°
2026-04-20 18:41 41.80522 -87.97726 8010 ft 272 kts 202°
2026-04-20 18:41 41.78758 -87.98627 8864 ft 277 kts 203°
2026-04-20 18:41 41.76939 -87.99558 9702 ft 283 kts 203°
2026-04-20 18:42 41.75065 -88.00514 10449 ft 293 kts 205°
2026-04-20 18:42 41.73079 -88.01533 10742 ft 321 kts 205°
2026-04-20 18:42 41.70904 -88.02650 10966 ft 349 kts 205°
2026-04-20 18:42 41.68555 -88.03846 11397 ft 369 kts 205°
2026-04-20 18:43 41.66112 -88.05082 12111 ft 380 kts 205°
2026-04-20 18:43 41.63610 -88.06348 12869 ft 389 kts 206°
2026-04-20 18:43 41.61065 -88.07632 13762 ft 393 kts 206°
2026-04-20 18:43 41.58494 -88.08927 14656 ft 397 kts 206°
2026-04-20 18:44 41.55896 -88.10240 15475 ft 402 kts 206°
2026-04-20 18:44 41.53258 -88.11572 16234 ft 408 kts 206°
2026-04-20 18:44 41.50585 -88.12921 16992 ft 413 kts 207°
2026-04-20 18:44 41.47879 -88.14286 17729 ft 418 kts 207°
2026-04-20 18:45 41.45135 -88.15668 18468 ft 423 kts 207°
2026-04-20 18:45 41.42402 -88.17045 19163 ft 428 kts 207°
2026-04-20 18:45 41.39599 -88.18453 19817 ft 434 kts 207°
2026-04-20 18:45 41.36726 -88.19803 20462 ft 441 kts 205°
2026-04-20 18:46 41.33799 -88.21098 21101 ft 446 kts 205°
2026-04-20 18:46 41.30821 -88.22401 21719 ft 451 kts 205°
2026-04-20 18:46 41.27830 -88.23728 22343 ft 455 kts 205°
2026-04-20 18:46 41.24815 -88.25081 22952 ft 459 kts 205°
2026-04-20 18:47 41.21762 -88.26460 23515 ft 465 kts 206°
2026-04-20 18:47 41.18723 -88.27839 24080 ft 470 kts 206°
2026-04-20 18:47 41.15619 -88.29248 24652 ft 473 kts 206°
2026-04-20 18:47 41.12483 -88.30668 25186 ft 478 kts 206°
2026-04-20 18:48 41.09314 -88.32102 25675 ft 483 kts 206°
2026-04-20 18:48 41.06115 -88.33547 26178 ft 488 kts 206°
2026-04-20 18:48 41.02879 -88.35003 26653 ft 493 kts 206°
2026-04-20 18:48 40.99619 -88.36472 27127 ft 497 kts 206°
2026-04-20 18:49 40.96335 -88.37950 27615 ft 501 kts 206°
2026-04-20 18:49 40.93017 -88.39442 28069 ft 505 kts 206°
2026-04-20 18:49 40.89677 -88.40940 28492 ft 510 kts 206°
2026-04-20 18:49 40.86299 -88.42455 28921 ft 514 kts 206°
2026-04-20 18:50 40.82946 -88.43956 29335 ft 517 kts 206°
2026-04-20 18:50 40.79522 -88.45486 29726 ft 521 kts 206°
2026-04-20 18:50 40.76075 -88.47026 30141 ft 524 kts 206°
2026-04-20 18:50 40.72622 -88.48564 30651 ft 523 kts 206°
2026-04-20 18:51 40.69182 -88.50093 31241 ft 521 kts 206°
2026-04-20 18:51 40.65755 -88.51615 31821 ft 518 kts 206°
2026-04-20 18:51 40.62339 -88.53132 32360 ft 517 kts 206°
2026-04-20 18:51 40.58936 -88.54645 32846 ft 516 kts 206°
2026-04-20 18:52 40.55535 -88.56157 33315 ft 515 kts 206°
2026-04-20 18:52 40.52145 -88.57662 33785 ft 514 kts 206°
2026-04-20 18:52 40.48752 -88.59167 34019 ft 516 kts 206°
2026-04-20 18:52 40.45331 -88.60685 33980 ft 519 kts 206°
2026-04-20 18:53 40.39662 -88.63187 33983 ft 514 kts 206°
2026-04-20 18:53 40.32162 -88.67421 33987 ft 495 kts 220°
2026-04-20 18:54 40.27585 -88.71809 33997 ft 485 kts 232°
2026-04-20 18:54 40.22792 -88.77990 34023 ft 483 kts 234°
2026-04-20 18:55 40.20410 -88.81091 34230 ft 482 kts 234°
2026-04-20 18:55 40.18022 -88.84185 34301 ft 484 kts 233°
2026-04-20 18:55 40.13212 -88.90363 34368 ft 485 kts 233°
2026-04-20 18:56 40.08386 -88.96512 34373 ft 483 kts 233°
2026-04-20 18:56 40.03605 -89.02584 34366 ft 482 kts 233°
2026-04-20 18:57 39.98796 -89.08684 34371 ft 480 kts 233°
2026-04-20 18:57 39.94002 -89.14755 34367 ft 479 kts 233°
2026-04-20 18:58 39.89248 -89.20760 34366 ft 479 kts 233°
2026-04-20 18:58 39.84465 -89.26795 34370 ft 479 kts 233°
2026-04-20 18:59 39.79674 -89.32829 34370 ft 479 kts 232°
2026-04-20 18:59 39.74879 -89.38848 34355 ft 479 kts 232°
2026-04-20 19:00 39.70085 -89.44858 34358 ft 479 kts 232°
2026-04-20 19:00 39.65285 -89.50861 34362 ft 479 kts 232°
2026-04-20 19:01 39.60505 -89.56827 34363 ft 479 kts 232°
2026-04-20 19:01 39.55702 -89.62808 34357 ft 479 kts 232°
2026-04-20 19:02 39.50893 -89.68788 34358 ft 478 kts 232°
2026-04-20 19:02 39.46086 -89.74754 34356 ft 478 kts 232°
2026-04-20 19:03 39.41278 -89.80707 34358 ft 478 kts 232°
2026-04-20 19:03 39.36505 -89.86606 34358 ft 478 kts 232°
2026-04-20 19:04 39.31698 -89.92535 34359 ft 478 kts 232°
2026-04-20 19:04 39.26886 -89.98455 34362 ft 478 kts 232°
2026-04-20 19:05 39.22072 -90.04373 34358 ft 478 kts 232°
2026-04-20 19:05 39.17248 -90.10287 34356 ft 478 kts 232°
2026-04-20 19:06 39.12440 -90.16168 34346 ft 478 kts 232°
2026-04-20 19:06 39.07623 -90.22050 34354 ft 477 kts 232°
2026-04-20 19:07 39.02803 -90.27925 34348 ft 477 kts 232°
2026-04-20 19:07 38.97983 -90.33787 34350 ft 476 kts 232°
2026-04-20 19:08 38.90765 -90.42550 34351 ft 475 kts 232°
2026-04-20 19:09 38.85976 -90.48347 34350 ft 476 kts 231°
2026-04-20 19:09 38.81084 -90.54101 34331 ft 478 kts 230°
2026-04-20 19:10 38.76137 -90.59801 34322 ft 478 kts 230°
2026-04-20 19:10 38.71193 -90.65493 34319 ft 478 kts 230°
2026-04-20 19:11 38.66249 -90.71198 34318 ft 477 kts 230°
2026-04-20 19:11 38.61355 -90.76844 34315 ft 477 kts 230°
2026-04-20 19:12 38.56431 -90.82513 34316 ft 476 kts 230°
2026-04-20 19:12 38.51503 -90.88180 34308 ft 476 kts 230°
2026-04-20 19:13 38.46574 -90.93836 34317 ft 476 kts 230°
2026-04-20 19:13 38.41640 -90.99485 34316 ft 476 kts 230°
2026-04-20 19:14 38.36711 -91.05117 34313 ft 476 kts 230°
2026-04-20 19:14 38.31771 -91.10751 34320 ft 476 kts 230°
2026-04-20 19:15 38.26834 -91.16369 34323 ft 476 kts 230°
2026-04-20 19:15 38.21931 -91.21939 34319 ft 475 kts 230°
2026-04-20 19:16 38.16993 -91.27540 34321 ft 474 kts 230°
2026-04-20 19:16 38.12055 -91.33129 34319 ft 474 kts 230°
2026-04-20 19:17 38.07163 -91.38656 34317 ft 474 kts 230°
2026-04-20 19:17 38.02235 -91.44213 34299 ft 473 kts 230°
2026-04-20 19:18 37.97320 -91.49746 34298 ft 472 kts 230°
2026-04-20 19:18 37.92402 -91.55270 34292 ft 472 kts 230°
2026-04-20 19:19 37.87490 -91.60778 34290 ft 471 kts 230°
2026-04-20 19:19 37.82609 -91.66242 34285 ft 471 kts 230°
2026-04-20 19:20 37.77687 -91.71740 34287 ft 471 kts 230°
2026-04-20 19:20 37.72775 -91.77216 34278 ft 471 kts 230°
2026-04-20 19:21 37.67864 -91.82684 34275 ft 471 kts 230°
2026-04-20 19:21 37.62937 -91.88160 34268 ft 471 kts 230°
2026-04-20 19:22 37.58010 -91.93623 34270 ft 471 kts 230°
2026-04-20 19:22 37.53114 -91.99044 34267 ft 471 kts 229°
2026-04-20 19:23 37.48189 -92.04485 34267 ft 471 kts 229°
2026-04-20 19:23 37.43260 -92.09921 34270 ft 470 kts 229°
2026-04-20 19:24 37.38335 -92.15344 34275 ft 469 kts 229°
2026-04-20 19:24 37.33455 -92.20707 34277 ft 468 kts 229°
2026-04-20 19:25 37.28553 -92.26082 34287 ft 467 kts 229°
2026-04-20 19:25 37.23655 -92.31447 34288 ft 467 kts 229°
2026-04-20 19:26 37.18755 -92.36803 34293 ft 466 kts 229°
2026-04-20 19:26 37.13865 -92.42139 34300 ft 466 kts 229°
2026-04-20 19:27 37.08970 -92.47471 34293 ft 466 kts 229°
2026-04-20 19:27 37.04114 -92.52750 34303 ft 465 kts 229°
2026-04-20 19:28 36.99227 -92.58053 34298 ft 464 kts 228°
2026-04-20 19:28 36.94343 -92.63346 34311 ft 464 kts 228°
2026-04-20 19:29 36.89463 -92.68623 34299 ft 464 kts 228°
2026-04-20 19:29 36.84586 -92.73888 34295 ft 463 kts 228°
2026-04-20 19:30 36.79727 -92.79127 34315 ft 462 kts 228°
2026-04-20 19:30 36.74846 -92.84378 34311 ft 462 kts 228°
2026-04-20 19:31 36.69971 -92.89612 34316 ft 462 kts 228°
2026-04-20 19:31 36.65098 -92.94836 34311 ft 461 kts 228°
2026-04-20 19:32 36.60262 -93.00012 34317 ft 461 kts 228°
2026-04-20 19:32 36.55394 -93.05213 34313 ft 460 kts 228°
2026-04-20 19:33 36.50524 -93.10410 34322 ft 460 kts 227°
2026-04-20 19:33 36.45666 -93.15580 34326 ft 460 kts 227°
2026-04-20 19:34 36.40811 -93.20739 34324 ft 459 kts 227°
2026-04-20 19:34 36.35993 -93.25852 34323 ft 458 kts 227°
2026-04-20 19:35 36.31149 -93.30983 34297 ft 457 kts 227°
2026-04-20 19:35 36.26315 -93.36097 34313 ft 456 kts 227°
2026-04-20 19:36 36.21490 -93.41185 34326 ft 454 kts 227°
2026-04-20 19:36 36.16677 -93.46263 34317 ft 454 kts 227°
2026-04-20 19:37 36.11863 -93.51329 34298 ft 453 kts 227°
2026-04-20 19:37 36.07084 -93.56348 34301 ft 453 kts 227°
2026-04-20 19:38 36.02278 -93.61390 34296 ft 453 kts 227°
2026-04-20 19:38 35.97470 -93.66425 34318 ft 452 kts 227°
2026-04-20 19:39 35.92675 -93.71435 34319 ft 451 kts 227°
2026-04-20 19:39 35.87890 -93.76430 34310 ft 450 kts 227°
2026-04-20 19:40 35.83139 -93.81379 34314 ft 449 kts 227°
2026-04-20 19:40 35.78365 -93.86344 34312 ft 449 kts 227°
2026-04-20 19:41 35.73591 -93.91304 34312 ft 448 kts 227°
2026-04-20 19:41 35.68820 -93.96250 34318 ft 448 kts 227°
2026-04-20 19:42 35.64045 -94.01192 34317 ft 449 kts 227°
2026-04-20 19:42 35.59255 -94.06144 34324 ft 449 kts 227°
2026-04-20 19:43 35.54492 -94.11060 34315 ft 450 kts 227°
2026-04-20 19:43 35.49695 -94.16001 34320 ft 450 kts 226°
2026-04-20 19:44 35.44896 -94.20938 34323 ft 451 kts 226°
2026-04-20 19:44 35.40087 -94.25878 34323 ft 451 kts 226°
2026-04-20 19:45 35.35332 -94.30876 34324 ft 449 kts 228°
2026-04-20 19:45 35.30693 -94.35950 34326 ft 449 kts 228°
2026-04-20 19:46 35.26032 -94.41046 34320 ft 449 kts 228°
2026-04-20 19:46 35.21353 -94.46120 34322 ft 449 kts 228°
2026-04-20 19:47 35.17461 -94.50328 34319 ft 448 kts 227°
2026-04-20 19:47 35.12000 -94.56221 34323 ft 448 kts 227°
2026-04-20 19:48 35.08111 -94.60411 34322 ft 447 kts 227°
2026-04-20 19:48 35.03445 -94.65432 34318 ft 447 kts 227°
2026-04-20 19:49 34.98779 -94.70444 34323 ft 446 kts 227°
2026-04-20 19:49 34.94144 -94.75419 34323 ft 447 kts 227°
2026-04-20 19:50 34.89476 -94.80418 34323 ft 447 kts 227°
2026-04-20 19:50 34.84805 -94.85414 34323 ft 447 kts 227°
2026-04-20 19:51 34.80562 -94.90816 34320 ft 435 kts 242°
2026-04-20 19:51 34.77388 -94.97065 34318 ft 434 kts 243°
2026-04-20 19:52 34.74202 -95.03319 34316 ft 436 kts 242°
2026-04-20 19:52 34.70936 -95.09557 34316 ft 437 kts 242°
2026-04-20 19:53 34.67640 -95.15775 34315 ft 437 kts 242°
2026-04-20 19:53 34.64362 -95.21949 34322 ft 437 kts 242°
2026-04-20 19:54 34.61061 -95.28161 34321 ft 437 kts 241°
2026-04-20 19:54 34.57757 -95.34370 34318 ft 438 kts 241°
2026-04-20 19:55 34.54448 -95.40577 34328 ft 438 kts 241°
2026-04-20 19:55 34.51032 -95.46698 34315 ft 442 kts 233°
2026-04-20 19:56 34.46466 -95.51784 34323 ft 447 kts 226°
2026-04-20 19:56 34.41783 -95.56666 34324 ft 447 kts 226°
2026-04-20 19:57 34.37128 -95.61651 34316 ft 447 kts 226°
2026-04-20 19:57 34.32503 -95.66666 34325 ft 446 kts 226°
2026-04-20 19:58 34.27879 -95.71679 34334 ft 445 kts 226°
2026-04-20 19:58 34.23258 -95.76678 34331 ft 445 kts 226°
2026-04-20 19:59 34.18638 -95.81660 34331 ft 445 kts 226°
2026-04-20 19:59 34.14030 -95.86582 34331 ft 444 kts 226°
2026-04-20 19:59 34.11723 -95.89036 34225 ft 437 kts 226°
2026-04-20 20:00 34.09466 -95.91435 33933 ft 428 kts 226°
2026-04-20 20:00 34.07265 -95.93777 33742 ft 416 kts 226°
2026-04-20 20:00 34.05119 -95.96059 33553 ft 406 kts 226°
2026-04-20 20:00 34.03024 -95.98289 33311 ft 398 kts 226°
2026-04-20 20:01 34.00962 -96.00486 32925 ft 393 kts 226°
2026-04-20 20:01 33.98913 -96.02669 32404 ft 392 kts 226°
2026-04-20 20:01 33.96867 -96.04848 31873 ft 392 kts 226°
2026-04-20 20:01 33.94823 -96.07020 31362 ft 391 kts 226°
2026-04-20 20:02 33.92782 -96.09184 30877 ft 390 kts 226°
2026-04-20 20:02 33.90753 -96.11337 30417 ft 388 kts 226°
2026-04-20 20:02 33.88731 -96.13483 29961 ft 386 kts 226°
2026-04-20 20:02 33.86724 -96.15617 29495 ft 384 kts 226°
2026-04-20 20:03 33.84740 -96.17725 29038 ft 383 kts 226°
2026-04-20 20:03 33.82750 -96.19839 28602 ft 381 kts 225°
2026-04-20 20:03 33.80768 -96.21941 28166 ft 378 kts 225°
2026-04-20 20:03 33.78799 -96.24030 27726 ft 376 kts 225°
2026-04-20 20:04 33.76838 -96.26109 27286 ft 375 kts 225°
2026-04-20 20:04 33.74888 -96.28175 26851 ft 373 kts 225°
2026-04-20 20:04 33.72948 -96.30230 26411 ft 371 kts 225°
2026-04-20 20:04 33.71012 -96.32279 26006 ft 369 kts 225°
2026-04-20 20:05 33.69086 -96.34317 25569 ft 366 kts 225°
2026-04-20 20:05 33.67199 -96.36309 24921 ft 357 kts 225°
2026-04-20 20:05 33.65358 -96.38252 24038 ft 357 kts 225°
2026-04-20 20:05 33.63487 -96.40229 23147 ft 356 kts 225°
2026-04-20 20:06 33.61632 -96.42183 22326 ft 353 kts 225°
2026-04-20 20:06 33.59798 -96.44114 21474 ft 347 kts 224°
2026-04-20 20:06 33.58013 -96.45993 20567 ft 344 kts 224°
2026-04-20 20:06 33.56222 -96.47880 19635 ft 341 kts 224°
2026-04-20 20:07 33.54460 -96.49734 18964 ft 330 kts 224°
2026-04-20 20:07 33.52760 -96.51521 18386 ft 316 kts 224°
2026-04-20 20:07 33.51142 -96.53201 17986 ft 303 kts 224°
2026-04-20 20:07 33.49604 -96.54844 17606 ft 295 kts 224°
2026-04-20 20:08 33.47977 -96.56568 17316 ft 328 kts 224°
2026-04-20 20:08 33.46293 -96.58494 16857 ft 336 kts 234°
2026-04-20 20:08 33.45223 -96.60959 16472 ft 334 kts 255°
2026-04-20 20:08 33.44927 -96.63644 16080 ft 328 kts 270°
2026-04-20 20:09 33.44945 -96.66361 15698 ft 324 kts 271°
2026-04-20 20:09 33.44973 -96.69052 15294 ft 321 kts 271°
2026-04-20 20:09 33.45001 -96.71723 14898 ft 320 kts 271°
2026-04-20 20:09 33.45025 -96.74390 14482 ft 319 kts 270°
2026-04-20 20:10 33.45043 -96.77037 14155 ft 316 kts 270°
2026-04-20 20:10 33.45055 -96.79669 13788 ft 315 kts 270°
2026-04-20 20:10 33.45063 -96.82258 13428 ft 313 kts 270°
2026-04-20 20:10 33.45069 -96.84865 13064 ft 312 kts 270°
2026-04-20 20:11 33.45072 -96.87455 12702 ft 309 kts 269°
2026-04-20 20:11 33.45075 -96.90032 12340 ft 308 kts 269°
2026-04-20 20:11 33.45077 -96.92585 11978 ft 306 kts 269°
2026-04-20 20:11 33.45079 -96.95120 11628 ft 304 kts 269°
2026-04-20 20:12 33.45079 -96.97641 11276 ft 302 kts 269°
2026-04-20 20:12 33.45080 -97.00124 10926 ft 300 kts 269°
2026-04-20 20:12 33.45081 -97.02612 10587 ft 298 kts 268°
2026-04-20 20:13 33.45079 -97.07467 10204 ft 282 kts 268°
2026-04-20 20:13 33.45077 -97.09779 10079 ft 271 kts 267°
2026-04-20 20:13 33.44777 -97.11918 9882 ft 258 kts 245°
2026-04-20 20:13 33.44006 -97.13908 9652 ft 271 kts 243°
2026-04-20 20:14 33.43204 -97.15988 9332 ft 277 kts 243°
2026-04-20 20:14 33.42408 -97.18092 8996 ft 276 kts 243°
2026-04-20 20:14 33.41633 -97.20158 8653 ft 274 kts 244°
2026-04-20 20:14 33.40862 -97.22230 8335 ft 271 kts 244°
2026-04-20 20:15 33.40099 -97.24274 8018 ft 266 kts 244°
2026-04-20 20:15 33.39360 -97.26277 7716 ft 261 kts 243°
2026-04-20 20:15 33.38574 -97.28195 7382 ft 250 kts 232°
2026-04-20 20:15 33.37271 -97.29484 7112 ft 246 kts 202°
2026-04-20 20:16 33.35631 -97.30198 6842 ft 256 kts 197°
2026-04-20 20:16 33.33939 -97.30833 6536 ft 255 kts 196°
2026-04-20 20:16 33.32246 -97.31456 6240 ft 254 kts 196°
2026-04-20 20:16 33.30564 -97.32076 5933 ft 252 kts 196°
2026-04-20 20:17 33.28889 -97.32700 5633 ft 251 kts 196°
2026-04-20 20:17 33.27245 -97.33316 5341 ft 249 kts 196°
2026-04-20 20:17 33.25593 -97.33935 5038 ft 248 kts 196°
2026-04-20 20:17 33.23954 -97.34551 4746 ft 246 kts 196°
2026-04-20 20:18 33.22329 -97.35160 4463 ft 244 kts 196°
2026-04-20 20:18 33.20725 -97.35764 4306 ft 237 kts 196°
2026-04-20 20:18 33.19189 -97.36170 4147 ft 216 kts 175°
2026-04-20 20:18 33.17781 -97.35889 4022 ft 197 kts 168°
2026-04-20 20:19 33.16463 -97.35610 3788 ft 188 kts 169°
2026-04-20 20:19 33.15214 -97.35356 3576 ft 177 kts 169°
2026-04-20 20:19 33.14043 -97.35119 3371 ft 167 kts 169°
2026-04-20 20:19 33.12877 -97.34880 3154 ft 172 kts 169°
2026-04-20 20:20 33.11717 -97.34642 2923 ft 167 kts 169°
2026-04-20 20:20 33.10578 -97.34408 2726 ft 166 kts 169°
2026-04-20 20:20 33.09437 -97.34174 2509 ft 165 kts 169°
2026-04-20 20:20 33.08305 -97.33944 2459 ft 166 kts 169°
2026-04-20 20:21 33.07162 -97.33708 2411 ft 166 kts 169°
2026-04-20 20:21 33.06005 -97.33434 2128 ft 172 kts 166°
2026-04-20 20:21 33.04863 -97.33069 1740 ft 165 kts 167°
2026-04-20 20:21 33.03759 -97.32824 1449 ft 163 kts 169°
2026-04-20 20:22 33.03002 -97.32665 1289 ft 164 kts 171°
2026-04-20 20:22 33.01507 -97.32361 952 ft 165 kts 170°
2026-04-20 20:22 33.00368 -97.32118 732 ft 169 kts 170°
2026-04-20 20:22 32.99219 -97.31881 691 ft 155 kts 171°
2026-04-20 20:23 32.98459 -97.31727 690 ft 58 kts 170°
2026-04-20 20:23 32.98223 -97.31678 687 ft 18 kts 169°
2026-04-20 20:23 32.98143 -97.31645 695 ft 11 kts 140°
2026-04-20 20:23 32.98135 -97.31565 691 ft 11 kts 59°
2026-04-20 20:24 32.98213 -97.31548 687 ft 16 kts 354°
2026-04-20 20:24 32.98340 -97.31570 689 ft 19 kts 351°
2026-04-20 20:24 32.98463 -97.31598 689 ft 16 kts 350°
2026-04-20 20:24 32.98576 -97.31619 688 ft 16 kts 351°
2026-04-20 20:25 32.98688 -97.31643 687 ft 16 kts 351°
2026-04-20 20:25 32.98800 -97.31668 686 ft 16 kts 347°
2026-04-20 20:25 32.98911 -97.31692 687 ft 16 kts 354°
2026-04-20 20:25 32.99024 -97.31711 687 ft 16 kts 351°
2026-04-20 20:26 32.99136 -97.31734 687 ft 16 kts 350°
2026-04-20 20:26 32.99243 -97.31722 686 ft 16 kts 50°
2026-04-20 20:26 32.99274 -97.31592 687 ft 16 kts 72°
2026-04-20 20:26 32.99373 -97.31556 689 ft 16 kts 350°
2026-04-20 20:27 32.99486 -97.31582 688 ft 16 kts 348°
2026-04-20 20:27 32.99599 -97.31606 688 ft 16 kts 351°
2026-04-20 20:27 32.99627 -97.31609 695 ft 0 kts 353°
2026-04-20 20:27 32.99627 -97.31610 690 ft 0 kts 353°
2026-04-20 20:28 32.99655 -97.31600 690 ft 15 kts 32°
2026-04-20 20:28 32.99690 -97.31433 695 ft 16 kts 78°
2026-04-20 20:28 32.99688 -97.31350 691 ft 9 kts 132°
2026-04-20 20:28 32.99638 -97.31331 686 ft 2 kts 171°
2026-04-20 20:29 32.99634 -97.31331 689 ft 0 kts 172°